Погода в Эт-Туре

Египет     28°14′21″N   33°37′32″E
темп.,
°C
ветер,
м/с
пор.,
м/с
влажн.,
%
обл.,
%
осадки,
мм/ч
давл.,
гПа
погр.,
м
1 августа, вс
вс123:00+28в003714 0.0 100411
02:00+27ю11335 0.0 100311
05:00+27юв33435 0.0 100423
08:00+31ююв66410 0.0 1005425
11:00+35ю66270 0.0 1006755
14:00+36юз32212 0.0 1004946
17:00+38зюз22175 0.0 1003716
20:00+28юв22562 0.0 100513
2 августа, пн
пн223:00+28юв11495 0.0 100411
02:00+26сз11490 0.0 100411
05:00+26сз12490 0.0 100511
08:00+30ююз32410 0.0 1006408
11:00+35юз44290 0.0 1005938
14:00+37юз43210 0.0 1003950
17:00+36ю21230 0.0 1003520
20:00+28ююз11530 0.0 100413
3 августа, вт
вт323:00+28вюв22454 0.0 100411
02:00+28св11420 0.0 100411
05:00+26юз22440 0.0 100511
08:00+31юз21390 0.0 1006362
11:00+35ююз44300 0.0 10061036
14:00+37ююз66240 0.0 1004958
17:00+33зюз21344 0.0 1004306
20:00+28ю22550 0.0 100518
4 августа, ср
ср423:00+28ююв11520 0.0 100612
02:00+27с22550 0.0 100611
05:00+26ююз22500 0.0 100711
08:00+31зюз32500 0.0 1008402
11:00+36ююз65400 0.0 10081090
14:00+37ююз55360 0.0 1006921
17:00+39ю44240 0.0 1005656
20:00+28ююв23805 0.0 100872
5 августа, чт
чт523:00+30вюв33550 0.0 100826
02:00+30юв223471 0.0 100714
05:00+28сз336186 0.0 100831
08:00+33з114495 0.0 1009421
11:00+38ююз76317 0.0 10081306
14:00+41ю75211 0.0 10051890
17:00+39ююв552365 0.0 1005685
20:00+33ююв45425 0.0 100663